Volver al catálogo

COSMOS 2342

ActivoNavegaciónHEO
NORAD 24800·PAYLOAD·🇷🇺 Russia

Lanzado May 14, 1997 desde Plesetsk Cosmodrome

Loading…

Próximos Pases (próximas 24 horas)

TLE

ActualizadoSource: Space-Track

Época: Sep 13, 2026, 02:03 UTC

1 24800U 97022A   26256.08595294  .00000710  00000-0  00000+0 0  9994
2 24800  67.6244 241.7106 6464927 125.1925 313.2977  1.99579133214162

Sigue COSMOS 2342 en tiempo real con AllMySat

Download on the App Store